{"data":{"norad_id":62589,"intl_designator":"2025-008C","name":"STARLINK-11513 [DTC]","alt_names":[],"object_type":"PAYLOAD","status":"ACTIVE","operator":null,"country":"US","launch_date":"2025-01-13","launch_site_code":"AFETR","launch_vehicle":null,"mission":null,"orbit_class":"UNKNOWN","rcs_meters":null,"size_class":null,"mass_kg":null,"dimensions":null,"purposes":["comms"],"wikipedia_slug":null,"has_3d_model":false,"image_url":null,"decayed_at":null,"tle_current":{"epoch":"2026-05-25T01:17:06.095328Z","epoch_age_seconds":70535,"freshness":"FRESH","line1":"1 62589U 25008C   26145.05354277  .00134171  00000+0  10323-2 0  9993","line2":"2 62589  43.0016  25.9285 0001765 266.3535  93.7131 15.70840112 78127","mean_motion":15.70840112,"eccentricity":0.0001765,"inclination_deg":43.0016,"raan_deg":25.9285,"arg_perigee_deg":266.3535,"mean_anomaly_deg":93.7131,"bstar":0.0010323,"rev_number":7812,"period_min":91.670691943726,"perigee_km":355.30607894926,"apogee_km":357.68340395399,"semimajor_km":6734.6317414516,"source":"CELESTRAK","updated_at":"2026-05-25T13:38:19.733327Z"}}}